<?xml version="1.0"?>
<gpx xmlns="http://www.topografix.com/GPX/1/1" xmlns:xsi="http://www.w3.org/2001/XMLSchema-instance" version="1.1" creator="GPX RubyGem 1.0.0 -- http://dougfales.github.io/gpx/" xsi:schemaLocation="http://www.topografix.com/GPX/1/1 http://www.topografix.com/GPX/1/1/gpx.xsd">
  <metadata>
    <name/>
    <time>2026-05-07T22:11:17+00:00</time>
    <bound minlat="90.0" minlon="180.0" maxlat="-90.0" maxlon="-180.0"/>
  </metadata>
  <trk>
    <name/>
    <trkseg>
      <trkpt lat="47.795958" lon="13.114095">
        <time>1970-01-01T00:00:00+00:00</time>
        <ele>983.0</ele>
      </trkpt>
      <trkpt lat="47.796049" lon="13.114051">
        <time>1970-01-01T00:00:00+00:00</time>
        <ele>984.0</ele>
      </trkpt>
      <trkpt lat="47.796018" lon="13.113868">
        <time>1970-01-01T00:00:00+00:00</time>
        <ele>985.0</ele>
      </trkpt>
      <trkpt lat="47.795939" lon="13.113899">
        <time>1970-01-01T00:00:00+00:00</time>
        <ele>984.0</ele>
      </trkpt>
      <trkpt lat="47.795866" lon="13.11389">
        <time>1970-01-01T00:00:00+00:00</time>
        <ele>984.0</ele>
      </trkpt>
      <trkpt lat="47.79581" lon="13.113849">
        <time>1970-01-01T00:00:00+00:00</time>
        <ele>984.0</ele>
      </trkpt>
      <trkpt lat="47.795651" lon="13.113663">
        <time>1970-01-01T00:00:00+00:00</time>
        <ele>985.0</ele>
      </trkpt>
      <trkpt lat="47.795572" lon="13.113623">
        <time>1970-01-01T00:00:00+00:00</time>
        <ele>986.0</ele>
      </trkpt>
      <trkpt lat="47.795559" lon="13.11355">
        <time>1970-01-01T00:00:00+00:00</time>
        <ele>986.0</ele>
      </trkpt>
      <trkpt lat="47.795512" lon="13.11348">
        <time>1970-01-01T00:00:00+00:00</time>
        <ele>987.0</ele>
      </trkpt>
      <trkpt lat="47.795366" lon="13.113399">
        <time>1970-01-01T00:00:00+00:00</time>
        <ele>988.0</ele>
      </trkpt>
      <trkpt lat="47.79524" lon="13.113287">
        <time>1970-01-01T00:00:00+00:00</time>
        <ele>989.0</ele>
      </trkpt>
      <trkpt lat="47.795204" lon="13.113229">
        <time>1970-01-01T00:00:00+00:00</time>
        <ele>988.0</ele>
      </trkpt>
      <trkpt lat="47.7952" lon="13.113158">
        <time>1970-01-01T00:00:00+00:00</time>
        <ele>988.0</ele>
      </trkpt>
      <trkpt lat="47.795296" lon="13.11271">
        <time>1970-01-01T00:00:00+00:00</time>
        <ele>990.0</ele>
      </trkpt>
      <trkpt lat="47.795354" lon="13.112192">
        <time>1970-01-01T00:00:00+00:00</time>
        <ele>990.0</ele>
      </trkpt>
      <trkpt lat="47.795519" lon="13.111628">
        <time>1970-01-01T00:00:00+00:00</time>
        <ele>995.0</ele>
      </trkpt>
      <trkpt lat="47.79555" lon="13.111252">
        <time>1970-01-01T00:00:00+00:00</time>
        <ele>998.0</ele>
      </trkpt>
      <trkpt lat="47.795581" lon="13.111144">
        <time>1970-01-01T00:00:00+00:00</time>
        <ele>999.0</ele>
      </trkpt>
      <trkpt lat="47.795625" lon="13.110991">
        <time>1970-01-01T00:00:00+00:00</time>
        <ele>999.0</ele>
      </trkpt>
      <trkpt lat="47.796074" lon="13.110153">
        <time>1970-01-01T00:00:00+00:00</time>
        <ele>1006.0</ele>
      </trkpt>
      <trkpt lat="47.796216" lon="13.110162">
        <time>1970-01-01T00:00:00+00:00</time>
        <ele>1008.0</ele>
      </trkpt>
      <trkpt lat="47.796317" lon="13.11028">
        <time>1970-01-01T00:00:00+00:00</time>
        <ele>1009.0</ele>
      </trkpt>
      <trkpt lat="47.796424" lon="13.110286">
        <time>1970-01-01T00:00:00+00:00</time>
        <ele>1010.0</ele>
      </trkpt>
      <trkpt lat="47.796524" lon="13.110216">
        <time>1970-01-01T00:00:00+00:00</time>
        <ele>1011.0</ele>
      </trkpt>
      <trkpt lat="47.796722" lon="13.110001">
        <time>1970-01-01T00:00:00+00:00</time>
        <ele>1012.0</ele>
      </trkpt>
      <trkpt lat="47.796812" lon="13.110006">
        <time>1970-01-01T00:00:00+00:00</time>
        <ele>1013.0</ele>
      </trkpt>
      <trkpt lat="47.796907" lon="13.110148">
        <time>1970-01-01T00:00:00+00:00</time>
        <ele>1016.0</ele>
      </trkpt>
      <trkpt lat="47.796977" lon="13.110604">
        <time>1970-01-01T00:00:00+00:00</time>
        <ele>1019.0</ele>
      </trkpt>
      <trkpt lat="47.797008" lon="13.110688">
        <time>1970-01-01T00:00:00+00:00</time>
        <ele>1019.0</ele>
      </trkpt>
      <trkpt lat="47.797065" lon="13.110734">
        <time>1970-01-01T00:00:00+00:00</time>
        <ele>1019.0</ele>
      </trkpt>
      <trkpt lat="47.797156" lon="13.110739">
        <time>1970-01-01T00:00:00+00:00</time>
        <ele>1020.0</ele>
      </trkpt>
      <trkpt lat="47.797244" lon="13.110695">
        <time>1970-01-01T00:00:00+00:00</time>
        <ele>1019.0</ele>
      </trkpt>
      <trkpt lat="47.797441" lon="13.110485">
        <time>1970-01-01T00:00:00+00:00</time>
        <ele>1016.0</ele>
      </trkpt>
      <trkpt lat="47.797649" lon="13.110364">
        <time>1970-01-01T00:00:00+00:00</time>
        <ele>1016.0</ele>
      </trkpt>
      <trkpt lat="47.797693" lon="13.11031">
        <time>1970-01-01T00:00:00+00:00</time>
        <ele>1016.0</ele>
      </trkpt>
      <trkpt lat="47.797725" lon="13.110231">
        <time>1970-01-01T00:00:00+00:00</time>
        <ele>1015.0</ele>
      </trkpt>
      <trkpt lat="47.797778" lon="13.10995">
        <time>1970-01-01T00:00:00+00:00</time>
        <ele>1011.0</ele>
      </trkpt>
      <trkpt lat="47.798259" lon="13.109101">
        <time>1970-01-01T00:00:00+00:00</time>
        <ele>1013.0</ele>
      </trkpt>
      <trkpt lat="47.798764" lon="13.108323">
        <time>1970-01-01T00:00:00+00:00</time>
        <ele>1018.0</ele>
      </trkpt>
      <trkpt lat="47.798921" lon="13.108092">
        <time>1970-01-01T00:00:00+00:00</time>
        <ele>1022.0</ele>
      </trkpt>
      <trkpt lat="47.799217" lon="13.107825">
        <time>1970-01-01T00:00:00+00:00</time>
        <ele>1032.0</ele>
      </trkpt>
      <trkpt lat="47.799461" lon="13.107449">
        <time>1970-01-01T00:00:00+00:00</time>
        <ele>1028.0</ele>
      </trkpt>
      <trkpt lat="47.799776" lon="13.10717">
        <time>1970-01-01T00:00:00+00:00</time>
        <ele>1036.0</ele>
      </trkpt>
      <trkpt lat="47.800122" lon="13.106897">
        <time>1970-01-01T00:00:00+00:00</time>
        <ele>1036.0</ele>
      </trkpt>
      <trkpt lat="47.800348" lon="13.106755">
        <time>1970-01-01T00:00:00+00:00</time>
        <ele>1035.0</ele>
      </trkpt>
      <trkpt lat="47.800619" lon="13.106507">
        <time>1970-01-01T00:00:00+00:00</time>
        <ele>1037.0</ele>
      </trkpt>
      <trkpt lat="47.800803" lon="13.106374">
        <time>1970-01-01T00:00:00+00:00</time>
        <ele>1043.0</ele>
      </trkpt>
      <trkpt lat="47.801052" lon="13.10631">
        <time>1970-01-01T00:00:00+00:00</time>
        <ele>1049.0</ele>
      </trkpt>
      <trkpt lat="47.801595" lon="13.105868">
        <time>1970-01-01T00:00:00+00:00</time>
        <ele>1053.0</ele>
      </trkpt>
      <trkpt lat="47.801715" lon="13.105709">
        <time>1970-01-01T00:00:00+00:00</time>
        <ele>1055.0</ele>
      </trkpt>
      <trkpt lat="47.801909" lon="13.105346">
        <time>1970-01-01T00:00:00+00:00</time>
        <ele>1050.0</ele>
      </trkpt>
      <trkpt lat="47.802021" lon="13.105203">
        <time>1970-01-01T00:00:00+00:00</time>
        <ele>1047.0</ele>
      </trkpt>
      <trkpt lat="47.802037" lon="13.105218">
        <time>1970-01-01T00:00:00+00:00</time>
        <ele>1049.0</ele>
      </trkpt>
      <trkpt lat="47.802039" lon="13.105291">
        <time>1970-01-01T00:00:00+00:00</time>
        <ele>1054.0</ele>
      </trkpt>
      <trkpt lat="47.801992" lon="13.105627">
        <time>1970-01-01T00:00:00+00:00</time>
        <ele>1072.0</ele>
      </trkpt>
      <trkpt lat="47.802007" lon="13.105647">
        <time>1970-01-01T00:00:00+00:00</time>
        <ele>1074.0</ele>
      </trkpt>
      <trkpt lat="47.802035" lon="13.105629">
        <time>1970-01-01T00:00:00+00:00</time>
        <ele>1075.0</ele>
      </trkpt>
      <trkpt lat="47.802167" lon="13.105331">
        <time>1970-01-01T00:00:00+00:00</time>
        <ele>1067.0</ele>
      </trkpt>
      <trkpt lat="47.802239" lon="13.10498">
        <time>1970-01-01T00:00:00+00:00</time>
        <ele>1050.0</ele>
      </trkpt>
      <trkpt lat="47.802278" lon="13.104912">
        <time>1970-01-01T00:00:00+00:00</time>
        <ele>1052.0</ele>
      </trkpt>
      <trkpt lat="47.802343" lon="13.104851">
        <time>1970-01-01T00:00:00+00:00</time>
        <ele>1056.0</ele>
      </trkpt>
      <trkpt lat="47.802419" lon="13.104834">
        <time>1970-01-01T00:00:00+00:00</time>
        <ele>1061.0</ele>
      </trkpt>
      <trkpt lat="47.802609" lon="13.104872">
        <time>1970-01-01T00:00:00+00:00</time>
        <ele>1075.0</ele>
      </trkpt>
      <trkpt lat="47.802803" lon="13.104859">
        <time>1970-01-01T00:00:00+00:00</time>
        <ele>1087.0</ele>
      </trkpt>
      <trkpt lat="47.80315" lon="13.104643">
        <time>1970-01-01T00:00:00+00:00</time>
        <ele>1091.0</ele>
      </trkpt>
      <trkpt lat="47.803383" lon="13.104565">
        <time>1970-01-01T00:00:00+00:00</time>
        <ele>1093.0</ele>
      </trkpt>
      <trkpt lat="47.803756" lon="13.104263">
        <time>1970-01-01T00:00:00+00:00</time>
        <ele>1084.0</ele>
      </trkpt>
      <trkpt lat="47.804007" lon="13.104176">
        <time>1970-01-01T00:00:00+00:00</time>
        <ele>1088.0</ele>
      </trkpt>
      <trkpt lat="47.804644" lon="13.104115">
        <time>1970-01-01T00:00:00+00:00</time>
        <ele>1095.0</ele>
      </trkpt>
      <trkpt lat="47.805128" lon="13.103802">
        <time>1970-01-01T00:00:00+00:00</time>
        <ele>1082.0</ele>
      </trkpt>
      <trkpt lat="47.805234" lon="13.103707">
        <time>1970-01-01T00:00:00+00:00</time>
        <ele>1074.0</ele>
      </trkpt>
      <trkpt lat="47.805364" lon="13.103536">
        <time>1970-01-01T00:00:00+00:00</time>
        <ele>1064.0</ele>
      </trkpt>
      <trkpt lat="47.805442" lon="13.103501">
        <time>1970-01-01T00:00:00+00:00</time>
        <ele>1061.0</ele>
      </trkpt>
      <trkpt lat="47.805442" lon="13.103501">
        <time>1970-01-01T00:00:00+00:00</time>
        <ele>1061.0</ele>
      </trkpt>
      <trkpt lat="47.805364" lon="13.103536">
        <time>1970-01-01T00:00:00+00:00</time>
        <ele>1064.0</ele>
      </trkpt>
      <trkpt lat="47.805234" lon="13.103707">
        <time>1970-01-01T00:00:00+00:00</time>
        <ele>1074.0</ele>
      </trkpt>
      <trkpt lat="47.805128" lon="13.103802">
        <time>1970-01-01T00:00:00+00:00</time>
        <ele>1082.0</ele>
      </trkpt>
      <trkpt lat="47.804644" lon="13.104115">
        <time>1970-01-01T00:00:00+00:00</time>
        <ele>1095.0</ele>
      </trkpt>
      <trkpt lat="47.804007" lon="13.104176">
        <time>1970-01-01T00:00:00+00:00</time>
        <ele>1088.0</ele>
      </trkpt>
      <trkpt lat="47.803756" lon="13.104263">
        <time>1970-01-01T00:00:00+00:00</time>
        <ele>1084.0</ele>
      </trkpt>
      <trkpt lat="47.803383" lon="13.104565">
        <time>1970-01-01T00:00:00+00:00</time>
        <ele>1093.0</ele>
      </trkpt>
      <trkpt lat="47.80315" lon="13.104643">
        <time>1970-01-01T00:00:00+00:00</time>
        <ele>1091.0</ele>
      </trkpt>
      <trkpt lat="47.802803" lon="13.104859">
        <time>1970-01-01T00:00:00+00:00</time>
        <ele>1087.0</ele>
      </trkpt>
      <trkpt lat="47.802609" lon="13.104872">
        <time>1970-01-01T00:00:00+00:00</time>
        <ele>1075.0</ele>
      </trkpt>
      <trkpt lat="47.802419" lon="13.104834">
        <time>1970-01-01T00:00:00+00:00</time>
        <ele>1061.0</ele>
      </trkpt>
      <trkpt lat="47.802343" lon="13.104851">
        <time>1970-01-01T00:00:00+00:00</time>
        <ele>1056.0</ele>
      </trkpt>
      <trkpt lat="47.802278" lon="13.104912">
        <time>1970-01-01T00:00:00+00:00</time>
        <ele>1052.0</ele>
      </trkpt>
      <trkpt lat="47.802239" lon="13.10498">
        <time>1970-01-01T00:00:00+00:00</time>
        <ele>1050.0</ele>
      </trkpt>
      <trkpt lat="47.802167" lon="13.105331">
        <time>1970-01-01T00:00:00+00:00</time>
        <ele>1067.0</ele>
      </trkpt>
      <trkpt lat="47.802035" lon="13.105629">
        <time>1970-01-01T00:00:00+00:00</time>
        <ele>1075.0</ele>
      </trkpt>
      <trkpt lat="47.802007" lon="13.105647">
        <time>1970-01-01T00:00:00+00:00</time>
        <ele>1074.0</ele>
      </trkpt>
      <trkpt lat="47.801992" lon="13.105627">
        <time>1970-01-01T00:00:00+00:00</time>
        <ele>1072.0</ele>
      </trkpt>
      <trkpt lat="47.802039" lon="13.105291">
        <time>1970-01-01T00:00:00+00:00</time>
        <ele>1054.0</ele>
      </trkpt>
      <trkpt lat="47.802037" lon="13.105218">
        <time>1970-01-01T00:00:00+00:00</time>
        <ele>1049.0</ele>
      </trkpt>
      <trkpt lat="47.802021" lon="13.105203">
        <time>1970-01-01T00:00:00+00:00</time>
        <ele>1047.0</ele>
      </trkpt>
      <trkpt lat="47.801909" lon="13.105346">
        <time>1970-01-01T00:00:00+00:00</time>
        <ele>1050.0</ele>
      </trkpt>
      <trkpt lat="47.801715" lon="13.105709">
        <time>1970-01-01T00:00:00+00:00</time>
        <ele>1055.0</ele>
      </trkpt>
      <trkpt lat="47.801595" lon="13.105868">
        <time>1970-01-01T00:00:00+00:00</time>
        <ele>1053.0</ele>
      </trkpt>
      <trkpt lat="47.801052" lon="13.10631">
        <time>1970-01-01T00:00:00+00:00</time>
        <ele>1049.0</ele>
      </trkpt>
      <trkpt lat="47.800803" lon="13.106374">
        <time>1970-01-01T00:00:00+00:00</time>
        <ele>1043.0</ele>
      </trkpt>
      <trkpt lat="47.800619" lon="13.106507">
        <time>1970-01-01T00:00:00+00:00</time>
        <ele>1037.0</ele>
      </trkpt>
      <trkpt lat="47.800348" lon="13.106755">
        <time>1970-01-01T00:00:00+00:00</time>
        <ele>1035.0</ele>
      </trkpt>
      <trkpt lat="47.800122" lon="13.106897">
        <time>1970-01-01T00:00:00+00:00</time>
        <ele>1036.0</ele>
      </trkpt>
      <trkpt lat="47.799776" lon="13.10717">
        <time>1970-01-01T00:00:00+00:00</time>
        <ele>1036.0</ele>
      </trkpt>
      <trkpt lat="47.799461" lon="13.107449">
        <time>1970-01-01T00:00:00+00:00</time>
        <ele>1028.0</ele>
      </trkpt>
      <trkpt lat="47.799217" lon="13.107825">
        <time>1970-01-01T00:00:00+00:00</time>
        <ele>1032.0</ele>
      </trkpt>
      <trkpt lat="47.798921" lon="13.108092">
        <time>1970-01-01T00:00:00+00:00</time>
        <ele>1022.0</ele>
      </trkpt>
      <trkpt lat="47.798764" lon="13.108323">
        <time>1970-01-01T00:00:00+00:00</time>
        <ele>1018.0</ele>
      </trkpt>
      <trkpt lat="47.798259" lon="13.109101">
        <time>1970-01-01T00:00:00+00:00</time>
        <ele>1013.0</ele>
      </trkpt>
      <trkpt lat="47.797778" lon="13.10995">
        <time>1970-01-01T00:00:00+00:00</time>
        <ele>1011.0</ele>
      </trkpt>
      <trkpt lat="47.797725" lon="13.110231">
        <time>1970-01-01T00:00:00+00:00</time>
        <ele>1015.0</ele>
      </trkpt>
      <trkpt lat="47.797693" lon="13.11031">
        <time>1970-01-01T00:00:00+00:00</time>
        <ele>1016.0</ele>
      </trkpt>
      <trkpt lat="47.797649" lon="13.110364">
        <time>1970-01-01T00:00:00+00:00</time>
        <ele>1016.0</ele>
      </trkpt>
      <trkpt lat="47.797441" lon="13.110485">
        <time>1970-01-01T00:00:00+00:00</time>
        <ele>1016.0</ele>
      </trkpt>
      <trkpt lat="47.797244" lon="13.110695">
        <time>1970-01-01T00:00:00+00:00</time>
        <ele>1019.0</ele>
      </trkpt>
      <trkpt lat="47.797156" lon="13.110739">
        <time>1970-01-01T00:00:00+00:00</time>
        <ele>1020.0</ele>
      </trkpt>
      <trkpt lat="47.797065" lon="13.110734">
        <time>1970-01-01T00:00:00+00:00</time>
        <ele>1019.0</ele>
      </trkpt>
      <trkpt lat="47.797008" lon="13.110688">
        <time>1970-01-01T00:00:00+00:00</time>
        <ele>1019.0</ele>
      </trkpt>
      <trkpt lat="47.796977" lon="13.110604">
        <time>1970-01-01T00:00:00+00:00</time>
        <ele>1019.0</ele>
      </trkpt>
      <trkpt lat="47.796907" lon="13.110148">
        <time>1970-01-01T00:00:00+00:00</time>
        <ele>1016.0</ele>
      </trkpt>
      <trkpt lat="47.796812" lon="13.110006">
        <time>1970-01-01T00:00:00+00:00</time>
        <ele>1013.0</ele>
      </trkpt>
      <trkpt lat="47.796722" lon="13.110001">
        <time>1970-01-01T00:00:00+00:00</time>
        <ele>1012.0</ele>
      </trkpt>
      <trkpt lat="47.796524" lon="13.110216">
        <time>1970-01-01T00:00:00+00:00</time>
        <ele>1011.0</ele>
      </trkpt>
      <trkpt lat="47.796424" lon="13.110286">
        <time>1970-01-01T00:00:00+00:00</time>
        <ele>1010.0</ele>
      </trkpt>
      <trkpt lat="47.796317" lon="13.11028">
        <time>1970-01-01T00:00:00+00:00</time>
        <ele>1009.0</ele>
      </trkpt>
      <trkpt lat="47.796216" lon="13.110162">
        <time>1970-01-01T00:00:00+00:00</time>
        <ele>1008.0</ele>
      </trkpt>
      <trkpt lat="47.796074" lon="13.110153">
        <time>1970-01-01T00:00:00+00:00</time>
        <ele>1006.0</ele>
      </trkpt>
      <trkpt lat="47.795625" lon="13.110991">
        <time>1970-01-01T00:00:00+00:00</time>
        <ele>999.0</ele>
      </trkpt>
      <trkpt lat="47.795581" lon="13.111144">
        <time>1970-01-01T00:00:00+00:00</time>
        <ele>999.0</ele>
      </trkpt>
      <trkpt lat="47.79555" lon="13.111252">
        <time>1970-01-01T00:00:00+00:00</time>
        <ele>998.0</ele>
      </trkpt>
      <trkpt lat="47.795519" lon="13.111628">
        <time>1970-01-01T00:00:00+00:00</time>
        <ele>995.0</ele>
      </trkpt>
      <trkpt lat="47.795354" lon="13.112192">
        <time>1970-01-01T00:00:00+00:00</time>
        <ele>990.0</ele>
      </trkpt>
      <trkpt lat="47.795296" lon="13.11271">
        <time>1970-01-01T00:00:00+00:00</time>
        <ele>990.0</ele>
      </trkpt>
      <trkpt lat="47.7952" lon="13.113158">
        <time>1970-01-01T00:00:00+00:00</time>
        <ele>988.0</ele>
      </trkpt>
      <trkpt lat="47.795204" lon="13.113229">
        <time>1970-01-01T00:00:00+00:00</time>
        <ele>988.0</ele>
      </trkpt>
      <trkpt lat="47.79524" lon="13.113287">
        <time>1970-01-01T00:00:00+00:00</time>
        <ele>989.0</ele>
      </trkpt>
      <trkpt lat="47.795366" lon="13.113399">
        <time>1970-01-01T00:00:00+00:00</time>
        <ele>988.0</ele>
      </trkpt>
      <trkpt lat="47.795512" lon="13.11348">
        <time>1970-01-01T00:00:00+00:00</time>
        <ele>987.0</ele>
      </trkpt>
      <trkpt lat="47.795559" lon="13.11355">
        <time>1970-01-01T00:00:00+00:00</time>
        <ele>986.0</ele>
      </trkpt>
      <trkpt lat="47.795572" lon="13.113623">
        <time>1970-01-01T00:00:00+00:00</time>
        <ele>986.0</ele>
      </trkpt>
      <trkpt lat="47.795651" lon="13.113663">
        <time>1970-01-01T00:00:00+00:00</time>
        <ele>985.0</ele>
      </trkpt>
      <trkpt lat="47.79581" lon="13.113849">
        <time>1970-01-01T00:00:00+00:00</time>
        <ele>984.0</ele>
      </trkpt>
      <trkpt lat="47.795866" lon="13.11389">
        <time>1970-01-01T00:00:00+00:00</time>
        <ele>984.0</ele>
      </trkpt>
      <trkpt lat="47.795939" lon="13.113899">
        <time>1970-01-01T00:00:00+00:00</time>
        <ele>984.0</ele>
      </trkpt>
      <trkpt lat="47.796018" lon="13.113868">
        <time>1970-01-01T00:00:00+00:00</time>
        <ele>985.0</ele>
      </trkpt>
      <trkpt lat="47.796049" lon="13.114051">
        <time>1970-01-01T00:00:00+00:00</time>
        <ele>984.0</ele>
      </trkpt>
      <trkpt lat="47.795958" lon="13.114095">
        <time>1970-01-01T00:00:00+00:00</time>
        <ele>983.0</ele>
      </trkpt>
    </trkseg>
  </trk>
</gpx>
